Regional Weather Roundup
Issued by NWS

Home | Current Version | Previous Version | Text Only | Print | Product List | Glossary Off
Versions: 1 2 3 4 5 6 7 8 9 10 11 12 13 14 15 16 17 18 19 20 21 22 23 24 25 26 27 28 29 30 31 32 33 34 35 36 37 38 39 40 41 42 43 44 45 46 47 48 49 50

000
ASUS43 KMKX 130620
RWRWI

WISCONSIN REGIONAL WEATHER ROUNDUP
NATIONAL WEATHER SERVICE MILWAUKEE/SULLIVAN WI
1200 AM CST THU DEC 13 2018

NOTE: "FAIR" INDICATES FEW OR NO CLOUDS BELOW 12,000 FEET WITH NO
SIGNIFICANT WEATHER AND/OR OBSTRUCTIONS TO VISIBILITY.

WIZ001-002-006>008-014>016-023>028-130700-
NORTHWEST WISCONSIN

CITY           SKY/WX    TMP DP  RH WIND       PRES   REMARKS
SUPERIOR ARPT  CLOUDY    28  26  90 CALM      29.88R
6HR MIN TEMP:  28; 6HR MAX TEMP:  29;

ASHLAND        CLOUDY    29  27  92 SE3       29.89S FOG
6HR MIN TEMP:  22; 6HR MAX TEMP:  30;

HAYWARD        CLOUDY    32  29  88 S5        29.86R FOG     WCI  27
6HR MIN TEMP:  30; 6HR MAX TEMP:  32;

SIREN          CLOUDY    29  27  92 CALM      29.87S FOG
6HR MIN TEMP:  29; 6HR MAX TEMP:  30;

CUMBERLAND     CLOUDY    28  28 100 CALM      29.86S FOG
RICE LAKE      FOG       30  30 100 SE5       29.88R VSB 1/4 WCI  25
6HR MIN TEMP:  30; 6HR MAX TEMP:  31;

CHETEK         FOG       30  30 100 CALM      29.88R VSB 3/4
6HR MIN TEMP:  30; 6HR MAX TEMP:  31;

LADYSMITH      CLOUDY    32  31  96 SE3       29.89R FOG
6HR MIN TEMP:  32; 6HR MAX TEMP:  32;

EAU CLAIRE     CLOUDY    29  27  92 CALM      29.89R FOG
6HR MIN TEMP:  28; 6HR MAX TEMP:  30;

MENOMONIE      CLOUDY    26  23  89 CALM      29.89S FOG
6HR MIN TEMP:  26; 6HR MAX TEMP:  27;

NEW RICHMOND   CLOUDY    27  25  94 S8        29.89R FOG     WCI  18
6HR MIN TEMP:  27; 6HR MAX TEMP:  28;

OSCEOLA        CLOUDY    28  27  94 S7        29.92R FOG     WCI  21
6HR MIN TEMP:  27; 6HR MAX TEMP:  29;

$$

WIZ003>005-009-010-017-018-130700-
NORTH CENTRAL WISCONSIN

CITY           SKY/WX    TMP DP  RH WIND       PRES   REMARKS
MANITOWISH WTR CLOUDY    29  29 100 SE5       29.86S FOG     WCI  24
6HR MIN TEMP:  28; 6HR MAX TEMP:  29;

ARBOR VITAE    CLOUDY    32  31  95 CALM      29.87S FOG
6HR MIN TEMP:  32; 6HR MAX TEMP:  32;

WOODRUFF       CLOUDY    32  31  95 CALM      29.87S FOG
6HR MIN TEMP:  32; 6HR MAX TEMP:  32;

RHINELANDER    CLOUDY    31  27  85 CALM      29.87R FOG
6HR MIN TEMP:  31; 6HR MAX TEMP:  31;

EAGLE RIVER    CLOUDY    29  29 100 CALM      29.87R FOG
6HR MIN TEMP:  29; 6HR MAX TEMP:  29;

LAND O LAKES   CLOUDY    30  29  99 CALM      29.89R FOG
6HR MIN TEMP:  29; 6HR MAX TEMP:  30;

PHILLIPS       CLOUDY    29  29 100 CALM      29.87R
6HR MIN TEMP:  29; 6HR MAX TEMP:  30;

TOMAHAWK       FOG       29  28  96 CALM      29.89R VSB 1/2
6HR MIN TEMP:  29; 6HR MAX TEMP:  29;

MEDFORD        FOG       29  29  99 CALM      29.87S VSB 3/4
6HR MIN TEMP:  29; 6HR MAX TEMP:  29;

MERRILL        FOG       31  31 100 CALM      29.88S VSB 1/2
6HR MIN TEMP:  30; 6HR MAX TEMP:  31;

$$

WIZ029-030-035-036-043>047-130700-
CENTRAL WISCONSIN

CITY           SKY/WX    TMP DP  RH WIND       PRES   REMARKS
WAUSAU         FOG       31  30  96 E3        29.87R VSB 1/4
6HR MIN TEMP:  31; 6HR MAX TEMP:  31;

MOSINEE        SNOW      32  32 100 CALM      29.90R VSB 1/4
MARSHFIELD     CLOUDY    31  31 100 CALM      29.87R
6HR MIN TEMP:  31; 6HR MAX TEMP:  32;

STEVENS POINT  FOG       30  30 100 CALM      29.89S VSB 1/4
6HR MIN TEMP:  30; 6HR MAX TEMP:  31;

WAUPACA        FOG       34  33  96 CALM      29.91S VSB 1/4
6HR MIN TEMP:  34; 6HR MAX TEMP:  35;

WAUTOMA        FOG       32  31  96 CALM      29.91S VSB 1/4
WISC RAPIDS    FOG       32  28  85 CALM      29.90S VSB 1/4
6HR MIN TEMP:  32; 6HR MAX TEMP:  32;

CAMP DOUGLAS   CLOUDY    30  30 100 CALM      29.90S FOG
6HR MIN TEMP:  30; 6HR MAX TEMP:  32;

$$

WIZ011>013-019>022-031-037>040-048>050-130700-
NORTHEAST WISCONSIN

CITY           SKY/WX    TMP DP  RH WIND       PRES   REMARKS
ANTIGO         FOG       30  30 100 SE5       29.88S VSB 1   WCI  25
6HR MIN TEMP:  29; 6HR MAX TEMP:  30;

SHAWANO        FOG       34  33  95 CALM      29.91S VSB 1/4
6HR MIN TEMP:  34; 6HR MAX TEMP:  34;

OCONTO         CLOUDY    32  32  99 CALM      29.92R
6HR MIN TEMP:  32; 6HR MAX TEMP:  33;

STURGEON BAY   CLOUDY    35  33  92 E3        29.91S FOG
6HR MIN TEMP:  33; 6HR MAX TEMP:  35; 6HR PCP: TRACE;

GREEN BAY      FOG       33  31  92 N3        29.91S VSB 1
6HR MIN TEMP:  33; 6HR MAX TEMP:  34;

MANITOWOC      CLOUDY    33  32  96 W3        29.92R FOG
6HR MIN TEMP:  32; 6HR MAX TEMP:  35;

APPLETON       FOG       32  32 100 CALM      29.89S VSB<1/4
CLINTONVILLE   FOG       33  32  97 CALM      29.91R VSB 1/2
6HR MIN TEMP:  32; 6HR MAX TEMP:  33;

OSHKOSH        FOG       33  33 100 CALM      29.91R VSB 1/4
6HR MIN TEMP:  32; 6HR MAX TEMP:  34;

$$

WIZ032>034-041-042-053>061-130700-
SOUTHWEST WISCONSIN

CITY           SKY/WX    TMP DP  RH WIND       PRES   REMARKS
LA CROSSE      CLOUDY    29  23  78 S5        29.91S HAZE    WCI  24
6HR MIN TEMP:  29; 6HR MAX TEMP:  31;

SPARTA         NOT AVBL
VIROQUA        FAIR      25  25 100 CALM      29.90R
6HR MIN TEMP:  24; 6HR MAX TEMP:  28;

BOSCOBEL       CLOUDY    25  22  88 S3        29.94R FOG
6HR MIN TEMP:  23; 6HR MAX TEMP:  31;

PRAIRIE DU CHI CLOUDY    27  24  88 CALM      29.93F FOG
6HR MIN TEMP:  27; 6HR MAX TEMP:  29;

PLATTEVILLE    CLOUDY    26  26 100 CALM      29.92F
6HR MIN TEMP:  26; 6HR MAX TEMP:  29;

$$

WIZ056-057-062-063-064-067-068-130700-
SOUTH CENTRAL WISCONSIN

CITY           SKY/WX    TMP DP  RH WIND       PRES   REMARKS
REEDSBURG      CLOUDY    28  28 100 CALM      29.92R FOG
6HR MIN TEMP:  27; 6HR MAX TEMP:  31;

BARABOO/DELLS  CLOUDY    28  27  96 SW3       29.92R FOG
6HR MIN TEMP:  29; 6HR MAX TEMP:  31;

LONE ROCK      FAIR      26  24  92 S3        29.93S FOG
6HR MIN TEMP:  25; 6HR MAX TEMP:  31;

MINERAL POINT  CLOUDY    28  28 100 CALM      29.91S FOG
MADISON        FAIR      28  25  88 CALM      29.93R FOG
6HR MIN TEMP:  28; 6HR MAX TEMP:  31;

MIDDLETON      FAIR      24  23  96 CALM      29.93R
6HR MIN TEMP:  24; 6HR MAX TEMP:  32;

WATERTOWN      CLOUDY    30  30 100 SW5       29.93R FOG     WCI  25
6HR MIN TEMP:  29; 6HR MAX TEMP:  31;

MONROE         FAIR      25  24  96 MISG      29.92S FOG
6HR MIN TEMP:  23; 6HR MAX TEMP:  29;

JANESVILLE     FAIR      28  28 100 SW5       29.95R FOG     WCI  23
$$

WIZ051-052-058>065-066-070>072-130700-
SOUTHEAST WISCONSIN

CITY           SKY/WX    TMP DP  RH WIND       PRES   REMARKS
MILWAUKEE      FAIR      32  27  81 W5        29.93S HAZE    WCI  27
6HR MIN TEMP:  31; 6HR MAX TEMP:  32;

WAUKESHA       CLOUDY    30  28  93 CALM      29.93S FOG
MILWAUKEE/TIMM CLOUDY    32  28  86 CALM      29.94S FOG
RACINE         FAIR      30  26  85 W3        29.95S FOG
6HR MIN TEMP:  30; 6HR MAX TEMP:  32;

KENOSHA        CLOUDY    31  28  89 SW3       29.94S FOG
6HR MIN TEMP:  30; 6HR MAX TEMP:  32;

FOND DU LAC    FOG       32  32 100 SW5       29.92R VSB 1/2 WCI  27
6HR MIN TEMP:  30; 6HR MAX TEMP:  32;

SHEBOYGAN      CLOUDY    32  30  92 CALM      29.92R FOG
6HR MIN TEMP:  31; 6HR MAX TEMP:  32;

WEST BEND      CLOUDY    32  32 100 CALM      29.92S FOG
JUNEAU         FOG       30  30  99 CALM      29.92S VSB 3/4
6HR MIN TEMP:  29; 6HR MAX TEMP:  30;

$$

LSZ147-162-130700-
LAKE SUPERIOR

STATION/POSITION TIME  TEMP    WIND        PRES    WAVE
                       AIR SEA DIR/SP/G            HT/PER
                 (UTC) (F)     (DEG/KT/KT) (MB)    (FT/S)
DEVILS ISLAND    0600   33     180/  6/  8 1012.6R
SAXON HARBOR     0540   29     200/  1/  2 1012.2S
$$

LMZ867-665-643>646-130700-
LAKE MICHIGAN

STATION/POSITION TIME  TEMP    WIND        PRES    WAVE
                       AIR SEA DIR/SP/G            HT/PER
                 (UTC) (F)     (DEG/KT/KT) (MB)    (FT/S)
NORTHPORT PIER   0540   35     150/  3/  6 1013.2R
KEWAUNEE LAKESHO 0554   33     260/  5/


USA.gov is the U.S. government's official web portal to all federal, state and local government web resources and services.